Location: Caltech
(34.1382°N, 118.1253°W)
Time: 17:30:15
(UTC-08:00)

SO-50 - Visible Passes

Search period start: 18 February 2018 00:00
Search period end: 28 February 2018 00:00
Orbit: 608 x 679 km, 64.6° (Epoch: 18 February)

Date Brightness Start Highest point End Pass type
(mag) Time Alt. Az. Time Alt. Az. Time Alt. Az.
18 Feb ? 05:15:28 10° NNE 05:17:24 12° NE 05:19:19 10° ENE visible
19 Feb ? 05:39:00 10° N 05:43:03 27° NE 05:47:07 10° ESE visible
20 Feb ? 06:03:41 10° NNW 06:08:25 67° ENE 06:13:12 10° SE visible
21 Feb ? 04:49:30 10° N 04:52:55 19° NE 04:56:21 10° E visible
22 Feb ? 05:13:51 10° NNW 05:18:25 44° ENE 05:23:00 10° SE visible
22 Feb ? 19:24:49 10° S 19:25:24 13° S 19:25:24 13° S visible
23 Feb ? 04:00:22 10° NNE 04:02:44 14° NE 04:05:07 10° ENE visible
23 Feb ? 05:38:54 10° NNW 05:43:39 71° WSW 05:48:26 10° SSE visible
23 Feb ? 19:49:21 10° SSW 19:51:40 31° SSW 19:51:40 31° SSW visible
24 Feb ? 04:24:21 11° N 04:28:21 30° NE 04:32:34 10° ESE visible
24 Feb ? 18:35:38 10° SSE 18:38:54 20° ESE 18:40:13 18° E visible
24 Feb ? 20:15:04 10° WSW 20:17:58 29° W 20:17:58 29° W visible
25 Feb ? 04:49:52 16° NNW 04:53:41 76° ENE 04:58:30 10° SSE visible
25 Feb ? 18:59:30 10° SSW 19:03:51 57° ESE 19:06:28 23° NE visible
25 Feb ? 20:42:13 10° W 20:44:13 14° NW 20:44:13 14° NW visible
26 Feb ? 03:37:54 21° NE 03:38:14 21° NE 03:41:52 10° E visible
26 Feb ? 05:15:38 18° NW 05:18:49 40° WSW 05:23:18 10° S visible
26 Feb ? 19:24:43 10° SW 19:29:02 50° WNW 19:32:36 15° NNE visible
27 Feb ? 04:03:52 49° ENE 04:03:52 49° ENE 04:08:21 10° SE visible
27 Feb ? 05:41:37 12° W 05:43:43 15° WSW 05:46:31 10° SW visible
27 Feb ? 18:09:55 10° S 18:13:57 36° ESE 18:18:05 10° NE visible
27 Feb ? 19:51:08 10° W 19:54:30 20° NW 19:57:54 10° N visible
